DECAYED

STARLINK-4469, 53657 (Decayed)

Orbit data source: Space-Track

STARLINK-4469, 53657 was a payload satellite owned by SpaceX/Seattle (US) in LEO that was launched on Wed, 31 Aug 2022 UTC via an FALCON 9 launch vehicle from the Air Force Western Test Range (AFWTR). Payload-class satellites include a variety of spacecraft equipped with specific instruments for various scientific and technological missions. These include communications satellites like Starlink; space stations such as the ISS; scientific satellites like the Hubble; Earth observation satellites from companies like Planet Labs, Umbra, and HawkEye 360; GPS; miniature CubeSats for education and research; and military/defense satellites.

Not visible in the next 10 days
Identifier
53657, 2022-105K
Orbit
Decayed
Country
Flag of USUS
Related business
Manufacturer
SpaceX/Seattle
Mission
Decayed Commercial Communications
Bus & Motor
STARLINK, Unknown motor
Mass
300 kg wet, ~290 kg dry
Launch date (UTC)
2022-08-31 (4 years ago)
Launch vehicle
FALCON 9
Launch site
Air Force Western Test Range (AFWTR)
Object type
Payload
Rocket body
Debris
Shape & HBR
Box + 1 Pan, 10.1 m
Radar Cross Section
13.562 m², Large (>1 m²)

Expand to show TLE details & history
Last TLE update: 3 months ago

TLE from 3 months ago
0 STARLINK-4469
1 53657U 22105K   26096.77914226  .11894115  28086-5  12777-3 0  9993
2 53657  97.5992   6.5897 0009914 218.1553 141.9051 16.50287006199209
Epoch: 2026-04-06T18:41Z
TLE epoch observation values (Epoch: 2026-04-06T18:41:57.891Z)
Latitude
0.00005°
Longitude
-108.96684°
Altitude
146.927 km
Speed
7.815 km/s
True Right ascension
00h 26m 21s
True Declination
0° 00' 00"
Sunlit
Object was in daylight at epoch
Visualization orbit readout
Latitude
Unknown
Longitude
Unknown
Altitude
Unknown
Speed
Unknown
Apparent Right ascension
Unknown
Apparent Declination
Unknown
Sunlit
N/A
Visualization observer readout
Local Sidereal Time
21:29:03
Azimuth
Unknown
Elevation
Unknown
Doppler factor
Unknown
Orbital elements
Apogee altitude
141.841 km
Perigee altitude
128.926 km
Semi-major axis
6,513.52 km
Eccentricity
0.00099
Inclination
97.5992°
RAAN
6.5897°
Arg. of periapsis
218.1553°
True anomaly
141.97512°
Mean anomaly
141.9051°
Eccentric anomaly
141.94012°
Mean motion
4.12876 °/min
Orbital period
87.19 mins
BSTAR
0.00012777
Loading maneuver chart data...
Computing Atmospheric mass density...
Loading historical data...
Loading historical data...
Loading historical data...
Loading historical data...
Loading historical data...
Loading historical data...
Loading historical data...

Documentation

Showing up to 5 results
|